This demonstration page uses our WeatherBlox Daily Observations layout. Learn more.

Left ArrowRight Arrow

Hourly Observations for June 7, 2020

Temp ( °F °C ) Dew Point ( °F °C ) Humidity (%) Winds ( mph kmh ) Pressure ( in mb ) Visibility ( mi km ) Precip ( " mm )
12:56 am 00:56 Clear 81 27.1 75 23.9 83 83 SSE 12 19 29.83 1010 10 16 0.00 0.00
1:56 am 01:56 Clear 80 26.9 75 23.7 83 83 SSE 12 19 29.80 1009 10 16 0.00 0.00
2:56 am 02:56 Clear 80 26.5 74 23.1 82 82 SSE 10 17 29.83 1010 10 16 0.00 0.00
3:56 am 03:56 Clear 78 25.8 73 22.7 83 83 SSE 10 17 29.83 1010 10 16 0.00 0.00
4:56 am 04:56 Clear 77 24.9 71 21.6 82 82 SSE 6 9 29.84 1011 10 16 0.00 0.00
5:56 am 05:56 Sunny 76 24.7 71 21.4 82 82 SSE 8 13 29.83 1010 10 16 0.00 0.00
6:56 am 06:56 Sunny 77 24.9 71 21.4 81 81 SSE 7 11 29.85 1011 10 16 0.00 0.00
7:56 am 07:56 Sunny 79 26.3 71 21.7 76 76 SSE 13 20 29.85 1011 10 16 0.00 0.00
8:56 am 08:56 Sunny 81 27.3 72 22.2 74 74 S 12 19 29.85 1011 10 16 0.00 0.00
9:56 am 09:56 Sunny 84 29.1 73 23 70 70 SSE 16 26 29.83 1010 10 16 0.00 0.00
10:56 am 10:56 Sunny 87 30.7 74 23.1 64 64 SSE 17 28 29.81 1009 10 16 0.00 0.00
11:56 am 11:56 Sunny 90 32.4 71 21.5 53 53 S 21 33 29.80 1009 10 16 0.00 0.00
12:56 pm 12:56 Partly Cloudy 92 33.2 69 20.7 48 48 S 21 33 29.79 1009 10 16 0.00 0.00
1:56 pm 13:56 Mostly Sunny 92 33.6 69 20.3 46 46 S 17 28 29.78 1008 10 16 0.00 0.00
2:56 pm 14:56 Mostly Sunny 93 33.7 68 20.1 45 45 S 21 33 29.76 1008 10 16 0.00 0.00
3:56 pm 15:56 Sunny 93 34 67 19.6 43 43 SSE 24 39 29.75 1007 10 16 0.00 0.00
4:56 pm 16:56 Sunny 93 34 67 19.6 43 43 SSE 21 33 29.73 1007 10 16 0.00 0.00
5:56 pm 17:56 Sunny 91 33 64 18 41 41 S 24 39 29.71 1006 10 16 0.00 0.00
6:56 pm 18:56 Sunny 91 32.6 68 20.1 48 48 S 20 31 29.71 1006 10 16 0.00 0.00
7:56 pm 19:56 Sunny 88 31.3 67 19.3 49 49 SSE 17 28 29.71 1006 10 16 0.00 0.00
8:56 pm 20:56 Clear 86 29.9 64 18 49 49 SE 17 28 29.71 1006 10 16 0.00 0.00
9:56 pm 21:56 Clear 83 28.5 66 18.8 56 56 SE 12 19 29.72 1006 10 16 0.00 0.00
10:56 pm 22:56 Clear 82 27.6 68 20.1 64 64 SSE 14 22 29.73 1007 10 16 0.00 0.00
11:56 pm 23:56 Clear 81 27.4 68 20.2 65 65 SSE 18 30 29.73 1007 10 16 0.00 0.00

Powered by AerisWeather